Weather History for KDNS - April, 2013

Change the Weather History Date:

Tuesday, April 30, 2013

  Actual Average Record
Temperature  
Mean Temperature 62 °F -  
Max Temperature 71 °F 65 °F 87 °F (2007)
Min Temperature 53 °F 44 °F 30 °F (2005)
Degree Days  
Heating Degree Days 3    
Growing Degree Days 12 (Base 50)    
Moisture  
Dew Point 49 °F    
Average Humidity 56    
Maximum Humidity 77    
Minimum Humidity 40    
Precipitation  
Precipitation 0.08 in - - ()
Sea Level Pressure  
Sea Level Pressure 29.68 in    
Wind  
Wind Speed 14 mph (North)    
Max Wind Speed 20 mph    
Max Gust Speed 26 mph    
Visibility 10 miles    
Events Rain    
Averages and records for this station are not official NWS values.
T = Trace of Precipitation, MM = Missing Value Source: NWS Daily Summary

Daily Weather History Graph

Daily Weather History Graph

Search for Another Location

Airport or City:

Trip Planner

Search our weather history database for the weather conditions in past years. The results will help you decide how hot, cold, wet, or windy it might be!

Date:

Astronomy

Apr. 30, 2013 Rise Set
Actual Time 6:18 AM CDT 8:19 PM CDT
Civil Twilight 5:48 AM CDT 8:50 PM CDT
Nautical Twilight 5:11 AM CDT 9:27 PM CDT
Astronomical Twilight 4:30 AM CDT 10:07 PM CDT
Moon 12:44 AM CDT (4/30) 10:47 AM CDT (4/30)
Length of Visible Light 15h 01m
Length of Day
14h 01m
Waning Gibbous, 70% of the Moon is Illuminated
Apr 30
Waning Gibbous
May 2
Last Quarter
May 9
New
May 17
First Quarter
May 24
Full

Hourly Weather History & Observations

Time (CDT) Temp. Dew Point Humidity Pressure Visibility Wind Dir Wind Speed Gust Speed Precip Events Conditions
12:15 AM 68.0 °F 57.2 °F 68% 29.50 in 10.0 mi South 16.1 mph - N/A   Clear
12:35 AM 68.0 °F 57.2 °F 68% 29.49 in 10.0 mi South 15.0 mph 21.9 mph N/A   Clear
12:55 AM 69.8 °F 59.0 °F 68% 29.48 in 10.0 mi South 17.3 mph - N/A   Clear
1:15 AM 69.8 °F 59.0 °F 68% 29.48 in 10.0 mi South 16.1 mph 24.2 mph N/A   Clear
1:35 AM 69.8 °F 59.0 °F 68% 29.48 in 10.0 mi South 17.3 mph - N/A   Clear
1:55 AM 69.8 °F 59.0 °F 68% 29.48 in 10.0 mi South 17.3 mph 25.3 mph N/A   Clear
2:15 AM 69.8 °F 57.2 °F 64% 29.48 in 10.0 mi South 17.3 mph 26.5 mph N/A   Clear
2:35 AM 69.8 °F 57.2 °F 64% 29.49 in 10.0 mi South 16.1 mph 23.0 mph N/A   Clear
2:55 AM 69.8 °F 57.2 °F 64% 29.50 in 10.0 mi South 16.1 mph 24.2 mph N/A   Clear
3:15 AM 68.0 °F 57.2 °F 68% 29.50 in 10.0 mi South 13.8 mph 20.7 mph N/A   Clear
3:35 AM 68.0 °F 55.4 °F 64% 29.50 in 10.0 mi South 13.8 mph 20.7 mph N/A   Clear
3:55 AM 68.0 °F 55.4 °F 64% 29.51 in 10.0 mi South 12.7 mph 24.2 mph N/A   Clear
4:15 AM 66.2 °F 55.4 °F 68% 29.51 in 10.0 mi South 15.0 mph - N/A   Clear
4:35 AM 66.2 °F 53.6 °F 64% 29.52 in 10.0 mi South 15.0 mph - N/A   Clear
4:55 AM 66.2 °F 53.6 °F 64% 29.52 in 10.0 mi South 13.8 mph 21.9 mph N/A   Clear
5:15 AM 66.2 °F 53.6 °F 64% 29.52 in 10.0 mi South 15.0 mph 21.9 mph N/A   Clear
5:35 AM 66.2 °F 51.8 °F 60% 29.52 in 10.0 mi South 17.3 mph - N/A   Clear
5:55 AM 64.4 °F 51.8 °F 64% 29.53 in 10.0 mi South 13.8 mph 20.7 mph N/A   Clear
6:15 AM 64.4 °F 51.8 °F 64% 29.54 in 10.0 mi South 15.0 mph - N/A   Clear
6:35 AM 64.4 °F 51.8 °F 64% 29.59 in 10.0 mi SW 11.5 mph 18.4 mph N/A   Clear
6:55 AM 64.4 °F 51.8 °F 64% 29.59 in 10.0 mi SW 9.2 mph 16.1 mph N/A   Clear
7:15 AM 66.2 °F 51.8 °F 60% 29.60 in 9.0 mi SSW 10.4 mph - N/A   Clear
7:35 AM 66.2 °F 51.8 °F 60% 29.60 in 10.0 mi SSW 12.7 mph - N/A   Clear
7:55 AM 69.8 °F 51.8 °F 53% 29.62 in 10.0 mi SSW 13.8 mph 19.6 mph N/A   Clear
8:15 AM 69.8 °F 51.8 °F 53% 29.62 in 10.0 mi SW 16.1 mph 21.9 mph N/A   Clear
8:35 AM 69.8 °F 51.8 °F 53% 29.63 in 10.0 mi WSW 12.7 mph 19.6 mph N/A   Clear
8:55 AM 66.2 °F 48.2 °F 52% 29.65 in 10.0 mi WNW 17.3 mph 24.2 mph N/A   Clear
9:15 AM 62.6 °F 46.4 °F 55% 29.66 in 10.0 mi WNW 13.8 mph 21.9 mph N/A   Clear
9:35 AM 64.4 °F 46.4 °F 52% 29.67 in 10.0 mi NW 19.6 mph - N/A   Clear
9:55 AM 64.4 °F 46.4 °F 52% 29.68 in 10.0 mi NW 15.0 mph - N/A   Clear
10:15 AM 64.4 °F 46.4 °F 52% 29.69 in 10.0 mi NNW 13.8 mph - N/A   Clear
10:35 AM 64.4 °F 48.2 °F 56% 29.70 in 10.0 mi NW 11.5 mph 19.6 mph N/A   Clear
10:55 AM 66.2 °F 46.4 °F 49% 29.70 in 10.0 mi North 15.0 mph - N/A   Clear
11:15 AM 66.2 °F 46.4 °F 49% 29.70 in 10.0 mi NNW 17.3 mph - N/A   Clear
11:35 AM 66.2 °F 46.4 °F 49% 29.72 in 10.0 mi North 16.1 mph 21.9 mph N/A   Clear
11:55 AM 68.0 °F 46.4 °F 46% 29.72 in 10.0 mi North 11.5 mph - N/A   Clear
12:15 PM 68.0 °F 46.4 °F 46% 29.72 in 10.0 mi North 11.5 mph 18.4 mph N/A   Clear
12:35 PM 68.0 °F 46.4 °F 46% 29.72 in 10.0 mi North 10.4 mph 16.1 mph N/A   Clear
12:55 PM 69.8 °F 46.4 °F 43% 29.73 in 10.0 mi North 11.5 mph 17.3 mph N/A   Clear
1:15 PM 71.6 °F 46.4 °F 41% 29.74 in 10.0 mi North 8.1 mph 17.3 mph N/A   Partly Cloudy
1:35 PM 71.6 °F 46.4 °F 41% 29.74 in 10.0 mi NNE 11.5 mph - N/A   Scattered Clouds
1:55 PM 71.6 °F 46.4 °F 41% 29.74 in 10.0 mi NNE 9.2 mph - N/A   Partly Cloudy
2:15 PM 71.6 °F 46.4 °F 41% 29.74 in 10.0 mi North 11.5 mph - N/A   Clear
2:35 PM 71.6 °F 46.4 °F 41% 29.73 in 10.0 mi North 9.2 mph 17.3 mph N/A   Clear
2:55 PM 71.6 °F 46.4 °F 41% 29.73 in 10.0 mi NNE 10.4 mph 17.3 mph N/A   Scattered Clouds
3:15 PM 69.8 °F 46.4 °F 43% 29.73 in 10.0 mi North 12.7 mph - N/A   Mostly Cloudy
3:35 PM 69.8 °F 46.4 °F 43% 29.73 in 10.0 mi North 13.8 mph - N/A   Overcast
3:55 PM 69.8 °F 46.4 °F 43% 29.73 in 10.0 mi North 13.8 mph - N/A   Overcast
4:15 PM 68.0 °F 44.6 °F 43% 29.75 in 10.0 mi North 12.7 mph - N/A   Overcast
4:35 PM 68.0 °F 44.6 °F 43% 29.75 in 10.0 mi North 11.5 mph - N/A   Overcast
4:55 PM 68.0 °F 44.6 °F 43% 29.76 in 10.0 mi North 11.5 mph 17.3 mph N/A   Overcast
5:15 PM 68.0 °F 42.8 °F 40% 29.76 in 10.0 mi North 11.5 mph - N/A   Mostly Cloudy
5:35 PM 68.0 °F 42.8 °F 40% 29.76 in 10.0 mi NNE 13.8 mph 19.6 mph N/A   Mostly Cloudy
5:55 PM 68.0 °F 42.8 °F 40% 29.77 in 10.0 mi North 12.7 mph - N/A   Mostly Cloudy
6:15 PM 66.2 °F 42.8 °F 43% 29.78 in 10.0 mi North 12.7 mph - N/A   Mostly Cloudy
6:35 PM 66.2 °F 44.6 °F 46% 29.79 in 8.0 mi NNE 10.4 mph 19.6 mph N/A Rain Light Rain
6:55 PM 66.2 °F 42.8 °F 43% 29.79 in 10.0 mi NNE 13.8 mph - N/A   Mostly Cloudy
7:15 PM 62.6 °F 46.4 °F 55% 29.84 in 5.0 mi NW 11.5 mph 18.4 mph N/A Rain Light Rain
7:35 PM 59.0 °F 48.2 °F 67% 29.80 in 7.0 mi NNE 18.4 mph - N/A Rain Rain
7:55 PM 59.0 °F 48.2 °F 67% 29.81 in 7.0 mi NE 13.8 mph - 0.06 in Rain Light Rain
8:15 PM 57.2 °F 48.2 °F 72% 29.83 in 7.0 mi NE 10.4 mph - N/A   Light Drizzle
8:35 PM 57.2 °F 48.2 °F 72% 29.84 in 10.0 mi NE 11.5 mph - N/A   Overcast
9:15 PM 57.2 °F 44.6 °F 63% 29.85 in 10.0 mi NE 11.5 mph - N/A   Overcast
9:35 PM 57.2 °F 44.6 °F 63% 29.86 in 10.0 mi NE 8.1 mph 13.8 mph N/A   Overcast
10:15 PM 57.2 °F 44.6 °F 63% 29.88 in 10.0 mi NE 10.4 mph - N/A   Overcast
10:35 PM 55.4 °F 46.4 °F 72% 29.90 in 7.0 mi NNE 6.9 mph 13.8 mph N/A Rain Light Rain
10:55 PM 55.4 °F 46.4 °F 72% 29.88 in 10.0 mi NE 16.1 mph - 0.02 in Rain Light Rain
11:15 PM 55.4 °F 44.6 °F 67% 29.87 in 10.0 mi NE 15.0 mph 23.0 mph N/A   Overcast
11:35 PM 53.6 °F 46.4 °F 77% 29.89 in 10.0 mi Variable 6.9 mph 20.7 mph N/A   Overcast
11:55 PM 53.6 °F 46.4 °F 77% 29.90 in 10.0 mi NE 18.4 mph - N/A   Overcast